Regional Weather Roundup
Issued by NWS Goodland, KS

Home | Current Version | Previous Version | Text Only | Print | Product List | Glossary Off
Versions: 1 2 3 4 5 6 7 8 9 10 11 12 13 14 15 16 17 18 19 20 21 22 23 24 25 26 27 28 29 30 31 32 33 34 35 36 37 38 39 40 41 42 43 44 45 46 47 48 49 50

000
ASUS43 KGLD 260108
RWRGLD

GOODLAND FORECAST AREA HOURLY WEATHER ROUNDUP
NATIONAL WEATHER SERVICE GOODLAND KS
700 PM MDT WED MAY 25 2016

...OFFICIAL OBSERVATIONS...

CITY           SKY/WX    TMP DP  RH WIND       PRES   REMARKS
GOODLAND KS    SUNNY     75  50  41 SE9       29.87F
HILL CITY KS   CLEAR     76  62  62 CALM      29.86S
IMPERIAL NEB   CLOUDY    56  49  77 N14       29.94F
MCCOOK NEB     CLEAR     74  57  55 SE5       29.85S
AKRON CO       CLOUDY    60  45  57 NE13      29.95F
BURLINGTON CO  SUNNY     77  37  23 SE8       29.89F
LIMON CO       SUNNY     67  39  35 VRB3      29.94R
$$

...UNOFFICIAL OBSERVATIONS...

CITY           SKY/WX    TMP DP  RH WIND       PRES   REMARKS
GOVE KS          N/A     76  32  20 MISG        N/A
LENORA KS        N/A     73  32  22 MISG        N/A
SHARON SPRINGS   N/A     79  48  33 SE5         N/A
TRIBUNE KS     CLEAR     82  34  17 S5        29.89
KIT CARSON CO    N/A     78  37  22 MISG        N/A
YUMA CO          N/A     59  51  75 NE12        N/A
$$




USA.gov is the U.S. government's official web portal to all federal, state and local government web resources and services.